This demonstration page uses our WeatherBlox Daily Observations layout. Learn more.

Left ArrowRight Arrow

39.92423, -83.80882

Hourly Observations for January 12, 2017

Temp ( °F °C ) Dew Point ( °F °C ) Humidity (%) Winds ( mph kmh ) Pressure ( in mb ) Visibility ( mi km ) Precip ( " mm )
12:56 am 00:56 Cloudy 58 14.4 54 12.2 87 87 SSW 17 28 29.83 1010 10 16.0934 0 0
1:31 am 01:31 Cloudy 57 14 54 12 88 88 SSW 18 30 29.83 1010 10 16.0934 0 0
1:56 am 01:56 Cloudy 59 15 54 12.2 83 83 SSW 17 28 29.83 1010 10 16.0934 0 0
2:09 am 02:09 Cloudy 59 15 54 12 82 82 SSW 16 26 29.83 1010 10 16.0934 0 0
2:56 am 02:56 Cloudy 60 15.6 55 12.8 84 84 SW 18 30 29.86 1011 10 16.0934 0 0
3:05 am 03:05 Cloudy 61 16 55 13 83 83 SSW 17 28 29.83 1010 10 16.0934 0 0
3:56 am 03:56 Cloudy 61 16.1 56 13.3 84 84 SW 18 30 29.86 1011 10 16.0934 0 0
4:04 am 04:04 Cloudy 61 16 55 13 83 83 SSW 21 33 29.83 1010 10 16.0934 0 0
4:26 am 04:26 Cloudy 61 16 55 13 83 83 SW 20 31 29.83 1010 10 16.0934 0 0
4:56 am 04:56 Cloudy 62 16.7 56 13.3 80 80 SSW 17 28 29.87 1011 10 16.0934 0 0
5:56 am 05:56 Cloudy 62 16.7 56 13.3 80 80 SSW 18 30 29.85 1011 10 16.0934 0 0
6:17 am 06:17 Cloudy 63 17 55 13 77 77 SW 18 30 29.83 1010 10 16.0934 0 0
6:56 am 06:56 Cloudy with Light Rain 61 16.1 57 13.9 87 87 SSW 16 26 29.87 1012 10 16.0934 0 0.0254
7:18 am 07:18 Cloudy with Light Rain 61 16 57 14 88 88 SSW 17 28 29.88 1012 10 16.0934 0.01 0.254
7:56 am 07:56 Cloudy with Light Rain 61 16.1 57 13.9 87 87 SW 21 33 29.87 1011 10 16.0934 0.01 0.254
8:56 am 08:56 Cloudy with Light Rain 61 16.1 57 13.9 87 87 SSW 20 31 29.88 1012 9 14.48406 0.03 0.762
9:56 am 09:56 Cloudy 62 16.7 57 13.9 84 84 SW 17 28 29.9 1012 10 16.0934 0 0.0254
10:56 am 10:56 Cloudy 63 17.2 57 13.9 81 81 SW 18 30 29.91 1013 10 16.0934 0 0
11:56 am 11:56 Cloudy with Light Rain 62 16.7 58 14.4 86 86 SW 18 30 29.91 1013 9 14.48406 0.01 0.254
12:14 pm 12:14 Cloudy with Rain 61 16 57 14 88 88 SW 17 28 29.91 1013 5 8.0467 0.04 1.016
12:31 pm 12:31 Cloudy with Heavy Rain 61 16 59 15 94 94 SW 17 28 29.91 1013 5 8.0467 0.1 2.54
12:56 pm 12:56 Cloudy 61 16.1 59 15 93 93 SW 18 30 29.9 1012 10 16.0934 0.11 2.794
1:16 pm 13:16 Cloudy 63 17 59 15 88 88 SW 22 35 29.88 1012 10 16.0934 0 0
1:46 pm 13:46 Cloudy with Nearby Thunderstorms 63 17 59 15 88 88 SW 20 31 29.88 1012 10 16.0934 0 0
1:56 pm 13:56 Cloudy with Heavy Thunderstorms 55 12.8 51 10.6 87 87 WNW 25 41 29.98 1015 3 4.82802 0.14 3.556
2:01 pm 14:01 Cloudy with Heavy Thunderstorms 52 11 48 9 88 88 NW 18 30 29.97 1015 1.75 2.816345 0.17 4.318
2:07 pm 14:07 Cloudy with Light Thunderstorms 50 10 48 9 94 94 NW 14 22 29.97 1015 3 4.82802 0.2 5.08
2:15 pm 14:15 Cloudy with Light Thunderstorms 50 10 48 9 94 94 NW 15 24 29.97 1015 10 16.0934 0.2 5.08
2:32 pm 14:32 Cloudy with Light Rain 48 9 46 8 94 94 NW 16 26 30.03 1017 7 11.26538 0.21 5.334
2:42 pm 14:42 Cloudy with Light Rain 48 9 46 8 94 94 NW 14 22 30.03 1017 10 16.0934 0.21 5.334
2:52 pm 14:52 Cloudy with Light Rain 48 9 46 8 94 94 WNW 15 24 30.06 1018 10 16.0934 0.21 5.334
2:56 pm 14:56 Cloudy with Light Rain 49 9.4 46 7.8 90 90 NW 13 20 30.03 1017 10 16.0934 0.21 5.334
3:04 pm 15:04 Cloudy with Light Rain 48 9 46 8 94 94 NW 12 19 30.06 1018 10 16.0934 0 0.0254
3:12 pm 15:12 Cloudy with Light Rain 48 9 46 8 94 94 WNW 12 19 30.06 1018 10 16.0934 0 0.0254
3:36 pm 15:36 Cloudy 48 9 45 7 87 87 NW 9 15 30.09 1019 10 16.0934 0 0.0254
3:52 pm 15:52 Cloudy 46 8 45 7 93 93 WNW 12 19 30.09 1019 10 16.0934 0 0.0254
3:56 pm 15:56 Cloudy 47 8.3 45 7.2 93 93 WNW 14 22 30.08 1019 10 16.0934 0 0.0254
4:14 pm 16:14 Cloudy 46 8 45 7 93 93 WNW 13 20 30.12 1020 10 16.0934 0 0.0254
4:25 pm 16:25 Cloudy 46 8 43 6 87 87 NW 13 20 30.12 1020 10 16.0934 0 0.0254
4:33 pm 16:33 Cloudy 46 8 43 6 87 87 WNW 14 22 30.12 1020 10 16.0934 0 0.0254
4:48 pm 16:48 Cloudy with Light Rain 45 7 43 6 93 93 WNW 16 26 30.15 1021 10 16.0934 0 0.0254
4:56 pm 16:56 Cloudy with Light Rain 45 7.2 41 5 86 86 NW 13 20 30.13 1020 10 16.0934 0 0.0254
5:56 pm 17:56 Cloudy 41 5 38 3.3 89 89 WNW 10 17 30.18 1022 10 16.0934 0 0
6:56 pm 18:56 Cloudy 39 3.9 35 1.7 86 86 NNW 15 24 30.23 1024 10 16.0934 0 0
7:56 pm 19:56 Cloudy 37 2.8 33 0.6 86 86 NW 13 20 30.29 1026 10 16.0934 0.01 0.254
8:56 pm 20:56 Cloudy 36 2.2 32 0 86 86 NW 10 17 30.33 1027 10 16.0934 0 0
9:56 pm 21:56 Cloudy 34 1.1 31 -0.6 89 89 NW 12 19 30.37 1029 10 16.0934 0 0
10:56 pm 22:56 Cloudy 34 1.1 30 -1.1 85 85 WNW 9 15 30.4 1030 10 16.0934 0 0
11:56 pm 23:56 Cloudy 33 0.6 29 -1.7 85 85 WNW 8 13 30.42 1030 10 16.0934 0 0

Powered by AerisWeather